When you browse on this site, cookies collect data to enhance your experience and personalize the content and advertising you see.
Visit our Privacy Policy to learn more. By continuing to use the site, you agree to this use of cookies and data.
EN

Hourly Weather Staromarevka

Today, 19 September, Saturday

Time Temperature Precipitation Wind Pressure Humidity
00:00 +17°C° 0 mm 5 mps 737 mmHg 59%
01:00 +16°C° 0 mm 5 mps 737 mmHg 62%
02:00 +15°C° 0 mm 4 mps 737 mmHg 65%
03:00 +14°C° 0 mm 4 mps 737 mmHg 68%
04:00 +14°C° 0 mm 5 mps 738 mmHg 64%
05:00 +14°C° 0 mm 5 mps 738 mmHg 59%
06:00 +13°C° 0 mm 6 mps 738 mmHg 55%
07:00 +14°C° 0 mm 7 mps 739 mmHg 53%
08:00 +14°C° 0 mm 7 mps 739 mmHg 51%
09:00 +13°C° 0 mm 8 mps 739 mmHg 49%
10:00 +15°C° 0 mm 8 mps 739 mmHg 45%
11:00 +16°C° 0 mm 8 mps 739 mmHg 42%
12:00 +17°C° 0 mm 8 mps 739 mmHg 39%
13:00 +18°C° 0 mm 8 mps 739 mmHg 38%
14:00 +18°C° 0 mm 7 mps 739 mmHg 37%
15:00 +18°C° 0 mm 7 mps 739 mmHg 36%
16:00 +19°C° 0 mm 6 mps 740 mmHg 39%
17:00 +17°C° 0 mm 5 mps 740 mmHg 41%
18:00 +17°C° 0 mm 4 mps 740 mmHg 43%
19:00 +16°C° 0 mm 3 mps 741 mmHg 47%
20:00 +14°C° 0 mm 3 mps 741 mmHg 51%
21:00 +12°C° 0 mm 3 mps 741 mmHg 55%
22:00 +13°C° 0 mm 2 mps 741 mmHg 56%
23:00 +12°C° 0 mm 2 mps 741 mmHg 58%

Tomorrow, 20 September, Sunday

Time Temperature Precipitation Wind Pressure Humidity
00:00 +12°C° 0 mm 1 mps 741 mmHg 60%
01:00 +12°C° 0 mm 2 mps 741 mmHg 61%
02:00 +12°C° 0 mm 2 mps 741 mmHg 62%
03:00 +10°C° 0 mm 2 mps 741 mmHg 62%
04:00 +10°C° 0 mm 2 mps 741 mmHg 64%
05:00 +10°C° 0 mm 2 mps 741 mmHg 65%
06:00 +10°C° 0 mm 2 mps 741 mmHg 67%
07:00 +12°C° 0 mm 3 mps 741 mmHg 60%
08:00 +14°C° 0 mm 3 mps 741 mmHg 53%
09:00 +17°C° 0 mm 3 mps 741 mmHg 47%
10:00 +19°C° 0 mm 3 mps 741 mmHg 43%
11:00 +20°C° 0 mm 3 mps 741 mmHg 39%
12:00 +22°C° 0 mm 3 mps 741 mmHg 35%
13:00 +22°C° 0 mm 4 mps 740 mmHg 33%
14:00 +23°C° 0 mm 4 mps 740 mmHg 32%
15:00 +23°C° 0 mm 5 mps 740 mmHg 31%
16:00 +22°C° 0 mm 4 mps 740 mmHg 34%
17:00 +21°C° 0 mm 3 mps 740 mmHg 37%
18:00 +20°C° 0 mm 2 mps 741 mmHg 40%
19:00 +18°C° 0 mm 2 mps 741 mmHg 41%
20:00 +17°C° 0 mm 2 mps 742 mmHg 42%
21:00 +15°C° 0 mm 1 mps 742 mmHg 42%
22:00 +15°C° 0 mm 2 mps 742 mmHg 45%
23:00 +14°C° 0 mm 2 mps 743 mmHg 47%

Day after tomorrow, 21 September, Monday

Time Temperature Precipitation Wind Pressure Humidity
00:00 +13°C° 0 mm 2 mps 743 mmHg 50%
01:00 +13°C° 0 mm 2 mps 743 mmHg 52%
02:00 +12°C° 0 mm 2 mps 743 mmHg 54%
03:00 +12°C° 0 mm 2 mps 743 mmHg 57%
04:00 +10°C° 0 mm 2 mps 743 mmHg 58%
05:00 +10°C° 0 mm 3 mps 743 mmHg 60%
06:00 +10°C° 0 mm 3 mps 743 mmHg 61%
07:00 +12°C° 0 mm 4 mps 744 mmHg 55%
08:00 +14°C° 0 mm 5 mps 744 mmHg 49%
09:00 +16°C° 0 mm 5 mps 744 mmHg 42%
10:00 +17°C° 0 mm 6 mps 743 mmHg 39%
11:00 +20°C° 0 mm 6 mps 743 mmHg 37%
12:00 +21°C° 0 mm 6 mps 743 mmHg 34%
13:00 +22°C° 0 mm 6 mps 742 mmHg 33%
14:00 +22°C° 0 mm 6 mps 742 mmHg 33%
15:00 +23°C° 0 mm 6 mps 742 mmHg 32%
16:00 +21°C° 0 mm 5 mps 742 mmHg 35%
17:00 +20°C° 0 mm 4 mps 741 mmHg 38%
18:00 +19°C° 0 mm 4 mps 741 mmHg 40%
19:00 +18°C° 0 mm 4 mps 742 mmHg 41%
20:00 +17°C° 0 mm 4 mps 742 mmHg 43%
21:00 +14°C° 0 mm 4 mps 742 mmHg 44%
22:00 +14°C° 0 mm 4 mps 742 mmHg 46%
23:00 +13°C° 0 mm 4 mps 742 mmHg 48%

22 September, Tuesday

Time Temperature Precipitation Wind Pressure Humidity
00:00 +13°C° 0 mm 5 mps 742 mmHg 50%
01:00 +12°C° 0 mm 4 mps 742 mmHg 57%
02:00 +12°C° 0 mm 4 mps 741 mmHg 65%
03:00 +11°C° 0 mm 4 mps 741 mmHg 73%
04:00 +11°C° 0 mm 3 mps 742 mmHg 77%
05:00 +11°C° 0 mm 3 mps 742 mmHg 81%
06:00 +10°C° 0 mm 3 mps 742 mmHg 86%
07:00 +13°C° 0 mm 4 mps 742 mmHg 80%
08:00 +15°C° 0 mm 5 mps 742 mmHg 74%
09:00 +17°C° 0 mm 6 mps 743 mmHg 68%
10:00 +19°C° 0 mm 6 mps 743 mmHg 64%
11:00 +20°C° 0 mm 6 mps 743 mmHg 60%
12:00 +22°C° 0 mm 7 mps 743 mmHg 56%
13:00 +22°C° 0 mm 6 mps 742 mmHg 55%
14:00 +22°C° 0 mm 6 mps 742 mmHg 55%
15:00 +22°C° 0 mm 6 mps 742 mmHg 54%
16:00 +21°C° 0 mm 6 mps 742 mmHg 58%
17:00 +20°C° 0 mm 5 mps 742 mmHg 62%
18:00 +19°C° 0 mm 4 mps 742 mmHg 67%
19:00 +19°C° 0 mm 5 mps 742 mmHg 70%
20:00 +17°C° 0 mm 5 mps 742 mmHg 73%
21:00 +16°C° 0 mm 5 mps 742 mmHg 76%
22:00 +16°C° 0 mm 5 mps 742 mmHg 79%
23:00 +16°C° 0 mm 5 mps 742 mmHg 81%

23 September, Wednesday

Time Temperature Precipitation Wind Pressure Humidity
00:00 +15°C° 0 mm 5 mps 742 mmHg 83%
01:00 +15°C° 0 mm 5 mps 742 mmHg 85%
02:00 +15°C° 0 mm 5 mps 742 mmHg 88%
03:00 +14°C° 0 mm 5 mps 741 mmHg 90%
04:00 +14°C° 0 mm 6 mps 741 mmHg 91%
05:00 +14°C° 0 mm 6 mps 742 mmHg 91%
06:00 +14°C° 0 mm 6 mps 742 mmHg 91%
07:00 +16°C° 0 mm 7 mps 742 mmHg 83%
08:00 +17°C° 0 mm 8 mps 742 mmHg 74%
09:00 +18°C° 0 mm 9 mps 742 mmHg 65%
10:00 +21°C° 0 mm 9 mps 742 mmHg 60%
11:00 +22°C° 0 mm 9 mps 741 mmHg 56%
12:00 +23°C° 0 mm 9 mps 741 mmHg 51%
13:00 +24°C° 0 mm 9 mps 741 mmHg 49%
14:00 +24°C° 0 mm 8 mps 740 mmHg 46%
15:00 +26°C° 0 mm 8 mps 740 mmHg 44%
16:00 +24°C° 0 mm 7 mps 740 mmHg 47%
17:00 +23°C° 0 mm 7 mps 739 mmHg 50%
18:00 +22°C° 0 mm 6 mps 739 mmHg 53%
19:00 +21°C° 0 mm 6 mps 739 mmHg 54%
20:00 +20°C° 0 mm 7 mps 739 mmHg 55%
21:00 +18°C° 0 mm 8 mps 739 mmHg 56%
22:00 +17°C° 0 mm 7 mps 739 mmHg 61%
23:00 +16°C° 0 mm 7 mps 739 mmHg 65%

24 September, Thursday

Time Temperature Precipitation Wind Pressure Humidity
00:00 +16°C° 0 mm 7 mps 739 mmHg 70%
01:00 +15°C° 0 mm 6 mps 739 mmHg 72%
02:00 +15°C° 0 mm 6 mps 738 mmHg 75%
03:00 +15°C° 0 mm 5 mps 738 mmHg 77%
04:00 +14°C° 0 mm 5 mps 738 mmHg 79%
05:00 +14°C° 0 mm 4 mps 738 mmHg 81%
06:00 +13°C° 0 mm 3 mps 739 mmHg 82%
07:00 +16°C° 0 mm 3 mps 739 mmHg 78%
08:00 +17°C° 0 mm 4 mps 738 mmHg 73%
09:00 +19°C° 0 mm 4 mps 738 mmHg 68%
10:00 +21°C° 0 mm 4 mps 738 mmHg 63%
11:00 +24°C° 0 mm 3 mps 738 mmHg 57%
12:00 +26°C° 0 mm 3 mps 738 mmHg 52%
13:00 +26°C° 0 mm 3 mps 738 mmHg 49%
14:00 +27°C° 0 mm 3 mps 738 mmHg 47%
15:00 +28°C° 0 mm 2 mps 738 mmHg 44%
16:00 +27°C° 0 mm 2 mps 737 mmHg 48%
17:00 +26°C° 0 mm 2 mps 737 mmHg 51%
18:00 +25°C° 0 mm 1 mps 737 mmHg 54%
19:00 +24°C° 0 mm 1 mps 737 mmHg 56%
20:00 +24°C° 0 mm 1 mps 737 mmHg 59%
21:00 +23°C° 0 mm 1 mps 738 mmHg 61%
22:00 +21°C° 0 mm 2 mps 737 mmHg 60%
23:00 +21°C° 0 mm 3 mps 737 mmHg 58%
Show more